Location: *
(50.2903°S, 172.5375°W)
Time: 12:54:19
(UTC+00:00)

Cosmos 2058 Rocket - Pass Details

Date: 17 November 2019
Orbit: 611 x 638 km, 82.5° (Epoch: 10 December)

Event Time Altitude Azimuth Distance (km) Brightness Sun altitude
Exits shadow 14:39:58 - 324° (NW) 2,129 5.2 -7.3°
Reaches altitude 10° 14:40:15 10° 322° (NW) 2,021 5.0 -7.3°
Maximum altitude 14:44:28 39° 253° (WSW) 963 3.8 -6.8°
Drops below altitude 10° 14:48:42 10° 183° (S) 2,031 6.3 -6.3°
Sets 14:51:04 0° 175° (S) 2,941 7.3 -6.0°
